Location: Asni�res
(47.4813°N, 3.6474°E)
Time: 22:14:59
(UTC+00:00)

Daily predictions for brighter satellites

Satellite Brightness Start Highest point End
(mag) Time Altitude Azimuth Time Altitude Azimuth Time Altitude Azimuth
BREEZE-M (TANK) 4.4 17:34:40 10° WNW 17:38:58 86° NNE 17:58:18 10° ESE
Cosmos 1844 Rocket 3.3 17:57:57 10° SSE 18:02:53 34° ESE 18:07:52 10° NE
Cosmos 372 Rocket 4.1 17:59:35 10° S 18:04:43 59° ESE 18:09:51 10° NNE
Cosmos 1707 2.9 18:01:11 10° N 18:04:56 48° ENE 18:08:39 10° SSE
NOSS 3-2 (C) 4.2 17:58:50 10° NW 18:06:03 57° NE 18:14:15 10° ESE
CZ-2C R/B 3.8 18:06:04 10° SSW 18:06:22 10° SSW 18:06:41 10° S
Cosmos 1844 4.4 18:05:24 10° SSE 18:10:21 32° ESE 18:15:17 10° NE
ISS -3.5 18:07:19 10° WSW 18:10:41 69° NNW 18:14:03 10° ENE
USA 186 3.7 18:11:38 10° E 18:13:24 14° ENE 18:15:12 10° NNE
Meteor 1-12 Rocket 4.5 18:08:36 10° S 18:14:15 52° E 18:19:51 10° NNE
Cosmos 1300 Rocket 3.8 18:15:20 10° SSE 18:19:35 49° E 18:23:53 10° NNE
Okean 1 Rocket 4.4 18:19:45 10° SE 18:23:00 20° E 18:26:17 10° NE
Sich 1 Rocket 3.6 18:19:22 10° S 18:23:53 86° E 18:28:29 10° N
NOSS 2-2 (E) 4.2 18:21:15 10° WSW 18:24:42 48° NW 18:28:42 10° NNE
CENTAUR R/B 3.3 18:17:15 10° NW 18:25:10 67° NE 18:33:54 10° SE
Cosmos 2298 Rocket 4.1 18:20:46 10° S 18:26:00 61° ESE 18:31:16 10° NNE
Cosmos 1833 Rocket 4.2 18:22:13 10° N 18:26:25 21° NE 18:30:12 11° E
Iridium 4 Rocket 4.4 18:23:12 10° SSW 18:28:19 58° W 18:33:54 10° N
CSL-04 Debris 4.1 18:25:01 10° SSE 18:30:23 77° ENE 18:35:48 10° NNW
CSL-04 Rocket 3.7 18:26:54 10° SSE 18:32:20 76° ENE 18:37:53 10° NNW
ATLAS 2AS CENTAUR R/B 3.6 18:27:16 10° S 18:34:04 33° ESE 18:40:53 10° NE
Okean 2 Rocket 3.0 18:29:38 10° S 18:34:06 71° E 18:38:34 10° NNE
Cosmos 1025 Rocket 3.0 18:29:58 10° N 18:34:23 74° E 18:38:46 10° SSE
NOSS 2-2 (D) 4.1 18:31:07 10° WSW 18:34:33 48° NW 18:38:29 10° NNE
YAOGAN 1 2.9 18:30:39 10° S 18:34:57 71° WSW 18:39:18 10° NNW
ATLAS 3B R/B 3.5 18:31:04 10° NNW 18:37:15 36° NNE 18:42:35 14° E
SWAS 4.4 18:35:52 10° NNW 18:40:10 73° ENE 18:44:26 10° SE
Abrixas rocket 1.8 18:37:38 10° WNW 18:40:28 75° SSW 18:42:11 21° ESE
Cosmos 1513 Rocket 4.4 18:35:26 10° S 18:41:39 83° E 18:47:50 10° N
CREW DRAGON DEMO-1 DEB 2.7 18:39:23 10° WNW 18:42:25 86° NNE 18:44:16 21° ESE
Cosmos 1536 Rocket 3.5 18:39:42 10° N 18:44:10 70° E 18:48:37 10° SSE
Cosmos 1125 Rocket 3.6 18:41:27 10° S 18:46:39 57° ESE 18:51:51 10° NNE
SJ-6B 3.6 18:48:31 20° ESE 18:50:17 30° ENE 18:53:38 10° N
CZ-4 R/B 3.1 18:48:43 10° SSW 18:52:38 38° W 18:56:32 10° NNW
Cosmos 2150 Rocket 4.1 18:48:09 10° SSW 18:53:34 87° WNW 18:59:04 10° NNE
SJ-11-01 4.4 18:48:54 10° S 18:53:36 79° WSW 18:58:20 10° NNW
USA 238 DEB 4.1 18:47:19 10° NW 18:54:30 71° SW 19:01:57 10° SSE
USA 238 4.1 18:47:25 10° NW 18:54:36 71° SW 19:02:04 10° SSE
CZ-2C R/B 3.6 18:49:21 10° S 18:54:41 67° WSW 19:00:21 10° NNW
Cosmos 1464 Rocket 4.1 18:48:53 10° S 18:55:01 83° W 19:01:16 10° N
Cosmos 1674 2.7 18:52:42 10° N 18:56:33 62° E 19:00:17 10° SSE
Cosmos 2026 Rocket 4.4 18:51:11 10° N 18:57:13 42° ENE 19:02:17 14° SE
Cosmos 2285 Rocket 4.0 18:51:12 10° S 18:57:21 58° ESE 19:03:35 10° NNE
Cosmos 1092 Rocket 4.1 18:51:28 10° N 18:57:29 53° ENE 19:03:33 10° SSE
MOS 1 Rocket 3.0 18:58:44 10° NNE 19:03:08 83° ESE 19:07:25 10° SSW
FREGAT/IRIS 3.5 19:04:41 26° NE 19:04:41 26° NE 19:06:22 10° N
TSX-5 4.3 19:04:52 10° S 19:08:30 42° ESE 19:13:05 10° NE
ARGOS 3.2 19:04:53 10° SSE 19:10:15 82° WSW 19:15:41 10° NNW
CZ-2C R/B 2.8 19:07:56 10° NNE 19:13:23 51° E 19:18:50 10° S
Cosmos 1340 Rocket 3.8 19:15:12 28° ENE 19:15:12 28° ENE 19:17:54 10° NNE
Cosmos 1733 3.3 19:13:48 22° SSE 19:16:00 48° E 19:19:43 10° NNE
Cosmos 2151 Rocket 4.2 19:12:24 10° SSW 19:16:49 59° WNW 19:21:17 10° N
MOS 1 4.3 19:13:05 16° SSE 19:17:40 66° ENE 19:23:21 10° N
Lacrosse 5 rocket 3.1 19:14:48 10° NW 19:18:30 26° N 19:20:43 18° NE
Cosmos 2082 Rocket 3.3 19:14:56 10° N 19:19:43 28° NE 19:21:17 24° ENE
BREEZE-M DEB (TANK) 3.9 19:19:21 10° W 19:22:34 43° SSW 19:27:36 20° SE
BREEZE-M R/B 3.8 19:12:36 10° WSW 19:23:09 81° SSE 19:24:25 39° E
DMSP B5D2-2 4.2 19:18:02 10° NNE 19:23:14 53° E 19:28:23 10° S
Cosmos 494 Rocket 4.4 19:19:35 10° NNW 19:24:48 62° WSW 19:29:53 11° S
Meteor 1-15 Rocket 4.3 19:21:50 10° SSW 19:27:30 80° WNW 19:33:18 10° N
Cosmos 1805 3.2 19:23:59 10° S 19:27:54 86° W 19:31:51 10° N
OBJECT-B 1.8 19:28:48 34° NNE 19:28:48 34° NNE 19:31:06 10° N
Milstar 3 Cent rocket 4.3 19:29:14 10° SSW 19:31:21 12° S 19:32:39 11° S
Ariane Rocket 3.0 19:28:06 17° SSE 19:32:07 85° WSW 19:37:14 10° NNW
SL-08 RB Rocket 4.0 19:27:52 11° S 19:32:12 67° W 19:36:44 10° NNW
H-2A R/B 3.4 19:29:04 10° SSW 19:33:43 39° W 19:38:31 10° NNW
Cosmos 1269 Rocket 4.0 19:31:27 10° NNW 19:36:48 85° WSW 19:39:33 29° SSE
Cosmos 1626 1.9 19:38:07 10° N 19:41:51 88° ENE 19:42:02 81° SSE
Okean 1-7 Rocket 4.1 19:37:47 10° N 19:41:51 42° ENE 19:41:51 42° ENE
MetOp-A 4.1 19:40:20 24° SSE 19:43:39 85° WSW 19:49:03 10° NNW
USA 186 3.0 19:42:34 28° SSW 19:43:46 40° W 19:46:54 10° NNW
COSMOS 2406 3.1 19:40:19 10° NNW 19:46:02 81° ENE 19:47:55 44° SE
Cosmos 1844 Rocket 3.8 19:41:22 10° SW 19:46:40 43° NW 19:52:01 10° NNE
ISS -2.6 19:44:37 10° WNW 19:47:46 38° N 19:47:46 38° N
Cosmos 2278 Rocket 2.5 19:45:12 10° S 19:51:32 45° E 19:56:04 10° NE
Lacrosse 4 Rocket 2.3 19:49:41 10° NNW 19:52:52 36° NNE 19:52:52 36° NNE
Meteor 1-22 Rocket 4.3 19:49:25 10° S 19:55:21 89° ESE 20:01:29 10° NNE
Meteor 2-5 Rocket 4.2 19:50:40 10° NNW 19:56:16 61° W 20:00:46 16° S
Cosmos 909 Rocket 4.3 19:52:13 10° NNW 19:58:38 51° NE 19:59:55 45° E
Meteor 1-24 Rocket 3.8 19:53:02 10° NNW 19:58:38 74° W 20:01:37 29° S
Exosat Rocket 4.3 19:53:30 10° SW 19:58:39 51° WNW 20:03:35 10° NNE
Okean 1 Rocket 4.2 19:56:17 10° SSW 20:00:35 45° WNW 20:04:55 10° N
Cosmos 2266 Rocket 4.4 19:55:08 10° N 20:00:33 40° ENE 20:00:33 40° ENE
NOSS 3-4 (A) 3.4 19:55:50 10° SW 20:01:46 83° NW 20:08:10 10° NE
SL-14 R/B 3.6 19:57:52 10° NNW 20:01:48 63° W 20:01:55 63° WSW
NOSS 3-4 (C) 3.4 19:55:56 10° SW 20:01:52 83° NW 20:08:17 10° NE
Meteor 2-19 Rocket 4.4 19:56:43 10° N 20:02:48 65° ENE 20:03:47 57° ESE
Resurs 01 Rocket 1.9 20:03:26 58° NNE 20:03:26 58° NNE 20:07:16 10° N
Cosmos 1833 Rocket 2.6 20:05:26 10° NNW 20:11:07 88° WSW 20:11:54 68° SSE
Cosmos 2251 Rocket 3.7 20:08:42 10° NNW 20:13:44 60° NE 20:13:44 60° NE
CENTAUR R/B 4.2 20:08:18 10° NW 20:15:49 41° WSW 20:22:00 17° S
ARIANE 5 R/B 3.8 20:20:05 33° N 20:20:05 33° N 20:22:38 10° N
SPOT 3 Rocket 3.7 20:20:50 61° SW 20:21:30 68° WSW 20:26:39 10° NNW
ATLAS 2AS CENTAUR R/B 3.2 20:16:37 10° SW 20:24:36 74° NW 20:32:29 10° NE
Resurs 1-3 4.3 20:26:18 49° W 20:26:18 49° W 20:30:32 10° NNW
ATLAS 3B R/B 2.7 20:21:40 10° NW 20:28:33 75° SW 20:29:50 60° S
Cosmos 1892 Rocket 4.4 20:24:40 10° NNW 20:28:35 46° W 20:28:35 46° W
SPOT 5 4.5 20:33:48 27° NNE 20:33:48 27° NNE 20:36:51 10° N
Meteor 1-21 Rocket 4.4 20:28:12 10° N 20:33:15 63° NNE 20:33:15 63° NNE
Cosmos 1655 Rocket 3.9 20:31:15 10° N 20:37:34 88° W 20:37:50 83° S
Lacrosse 5 rocket 3.4 20:54:00 10° NW 20:56:20 29° NW 20:56:20 29° NW
Cosmos 2098 Rocket 4.3 20:55:21 10° NNW 21:01:45 59° W 21:01:45 59° W
Cosmos 2082 Rocket 2.9 20:58:40 10° NNW 21:03:08 51° WNW 21:03:08 51° WNW
Terra 4.0 21:21:45 20° N 21:21:45 20° N 21:23:17 10° N
Lacrosse 4 Rocket 4.4 21:28:42 10° WNW 21:29:10 12° WNW 21:29:10 12° WNW
Cosmos 2278 Rocket 3.7 21:33:01 26° W 21:34:55 32° NW 21:39:59 10° NNE
Resurs 01 Rocket 4.5 21:41:01 13° WNW 21:41:01 13° WNW 21:42:18 10° NW
